This is the latest recevied weather packets stored in our database for station/object KN6CW-3. If no packets are shown the sender has not sent any weather packets the latest 10 day(s).
| Time | Temp. | Humidity | Pressure | Rain* | Wind** | Luminosity | Snow |
|---|---|---|---|---|---|---|---|
| 1778016575 | 22.78° C | 43% | 1006.7 hPa | 0 mm | - | 86 W/m² | - |
| 1778016275 | 23.33° C | 44% | 1006.6 hPa | 0 mm | - | 69 W/m² | - |
| 1778015975 | 23.33° C | 44% | 1006.5 hPa | 0 mm | - | 91 W/m² | - |
| 1778015675 | 23.33° C | 41% | 1006.5 hPa | 0 mm | - | 105 W/m² | - |
| 1778015375 | 23.89° C | 40% | 1006.6 hPa | 0 mm | - | 135 W/m² | - |
| 1778015074 | 23.89° C | 40% | 1006.5 hPa | 0 mm | - | 162 W/m² | - |
| 1778014774 | 24.44° C | 40% | 1006.4 hPa | 0 mm | - | 197 W/m² | - |
| 1778014173 | 24.44° C | 41% | 1006.5 hPa | 0 mm | - | 367 W/m² | - |
| 1778013873 | 24.44° C | 39% | 1006.4 hPa | 0 mm | - | 336 W/m² | - |
| 1778013572 | 24.44° C | 39% | 1006.6 hPa | 0 mm | - | 475 W/m² | - |
| 1778013272 | 24.44° C | 37% | 1006.5 hPa | 0 mm | - | 294 W/m² | - |
| 1778012972 | 24.44° C | 37% | 1006.7 hPa | 0 mm | - | 218 W/m² | - |
| 1778012672 | 25° C | 36% | 1006.6 hPa | 0 mm | - | 650 W/m² | - |
| 1778012371 | 25° C | 36% | 1006.6 hPa | 0 mm | - | 671 W/m² | - |
| 1778011470 | 25° C | 38% | 1006.5 hPa | 0 mm | - | 682 W/m² | - |
| 1778011172 | 24.44° C | 38% | 1006.4 hPa | 0 mm | - | 663 W/m² | - |
| 1778010870 | 24.44° C | 38% | 1006.6 hPa | 0 mm | - | 248 W/m² | - |
| 1778010269 | 24.44° C | 38% | 1006.7 hPa | 0 mm | - | 735 W/m² | - |
| 1778009971 | 25° C | 39% | 1006.7 hPa | 0 mm | - | 744 W/m² | - |
| 1778009669 | 24.44° C | 39% | 1007 hPa | 0 mm | - | 758 W/m² | - |
| 1778009368 | 23.89° C | 39% | 1007.2 hPa | 0 mm | - | 853 W/m² | - |
| 1778009068 | 23.89° C | 39% | 1007.2 hPa | 0 mm | - | 308 W/m² | - |
| 1778008768 | 23.89° C | 38% | 1007.2 hPa | 0 mm | - | 213 W/m² | - |
| 1778008468 | 25° C | 37% | 1007.2 hPa | 0 mm | - | 860 W/m² | - |
| 1778008167 | 25° C | 37% | 1007.2 hPa | 0 mm | - | 856 W/m² | - |
* Rain latest hour (hover to see other rain measurements)
** Current wind speed in m/s (hover to see current wind gust speed)